Abbotsford, British Columbia

2:01 AM PDT on August 24, 2016 (GMT -0700)
Abbotsford

Weather History for CYXX - February, 2014

Change the Weather History Date:

Tuesday, February 18, 2014

  Actual Average Record
Temperature  
Mean Temperature 42 °F -  
Max Temperature 48 °F 50 °F 56 °F (2015)
Min Temperature 37 °F 34 °F 24 °F (2000)
Degree Days  
Heating Degree Days 22    
Moisture  
Dew Point 36 °F    
Average Humidity 80    
Maximum Humidity 93    
Minimum Humidity 63    
Precipitation  
Precipitation 0.20 in 0.20 in - ()
Sea Level Pressure  
Sea Level Pressure 29.70 in    
Wind  
Wind Speed 11 mph ()    
Max Wind Speed 29 mph    
Max Gust Speed 39 mph    
Visibility 11.7 miles    
Events Rain    
Averages and records for this station are not official NWS values.
T = Trace of Precipitation, MM = Missing Value Source: Averaged Metar Reports

Daily Weather History Graph

Daily Weather History Graph

Search for Another Location

Airport or City:

Trip Planner

Search our weather history database for the weather conditions in past years. The results will help you decide how hot, cold, wet, or windy it might be!

Date:

Astronomy

Feb. 18, 2014 Rise Set
Actual Time 7:12 AM PST 5:35 PM PST
Civil Twilight 6:39 AM PST 6:07 PM PST
Nautical Twilight 6:03 AM PST 6:44 PM PST
Astronomical Twilight 5:26 AM PST 7:21 PM PST
Moon 9:58 PM PST (2/18) 8:25 AM PST (2/18)
Length of Visible Light 11h 27m
Length of Day
10h 22m
Waning Gibbous, 86% of the Moon is Illuminated
Feb 18
Waning Gibbous
Feb 22
Last Quarter
Mar 1
New
Mar 8
First Quarter
Mar 16
Full

Hourly Weather History & Observations

Time (PST) Temp. Windchill Dew Point Humidity Pressure Visibility Wind Dir Wind Speed Gust Speed Precip Events Conditions
12:00 AM 39.2 °F 33.6 °F 35.6 °F 87% 29.90 in 10.0 mi SSW 8.1 mph - N/A   Mostly Cloudy
1:00 AM 41.0 °F 33.9 °F 35.6 °F 81% 29.90 in 10.0 mi South 12.7 mph - N/A   Mostly Cloudy
1:35 AM 41.0 °F 34.3 °F 35.6 °F 81% 29.91 in 10.0 mi South 11.5 mph - N/A Rain Light Rain
2:00 AM 41.0 °F 37.1 °F 35.6 °F 81% 29.91 in 10.0 mi SW 5.8 mph - N/A   Mostly Cloudy
3:00 AM 41.0 °F 33.9 °F 35.6 °F 81% 29.90 in 10.0 mi South 12.7 mph - N/A   Scattered Clouds
4:00 AM 39 °F - 35 °F 82% 29.90 in 10 mi SSW 3.5 mph - -   Partly Cloudy
4:00 AM 39.2 °F - 35.6 °F 87% 29.90 in 10.0 mi SSW 2.3 mph - N/A   Mostly Cloudy
5:00 AM 39.2 °F 35.0 °F 35.6 °F 87% 29.87 in 10.0 mi NNE 5.8 mph - N/A   Mostly Cloudy
6:00 AM 39.2 °F 37.0 °F 35.6 °F 87% 29.85 in 10.0 mi NNE 3.5 mph - N/A   Overcast
6:27 AM 39.2 °F 33.6 °F 35.6 °F 87% 29.83 in 10.0 mi NE 8.1 mph - N/A Rain Light Rain
7:00 AM 39.2 °F 35.0 °F 35.6 °F 87% 29.81 in 10.0 mi NE 5.8 mph - N/A   Overcast
7:28 AM 39.2 °F 37.0 °F 37.4 °F 93% 29.78 in 10.0 mi NNE 3.5 mph - N/A Rain Light Rain
8:00 AM 39.2 °F 33.0 °F 37.4 °F 93% 29.76 in 8.0 mi ENE 9.2 mph - N/A Rain Light Rain
9:00 AM 39.2 °F 32.5 °F 35.6 °F 87% 29.72 in 8.0 mi East 10.4 mph - N/A Rain Light Rain
10:00 AM 38 °F - 36 °F 90% 29.66 in 10 mi NE 6.9 mph - - Rain Light Rain
10:00 AM 39.2 °F 33.6 °F 35.6 °F 87% 29.66 in 10.0 mi NNE 8.1 mph - N/A Rain Light Rain
11:00 AM 41.0 °F 35.8 °F 35.6 °F 81% 29.59 in 10.0 mi ESE 8.1 mph - N/A Rain Light Rain
11:30 AM 42.8 °F 38.0 °F 37.4 °F 81% 29.57 in 10.0 mi SSE 8.1 mph - N/A   Overcast
12:00 PM 46.4 °F 38.7 °F 39.2 °F 76% 29.53 in 15.0 mi South 20.7 mph 32.2 mph N/A   Overcast
12:07 PM 46.4 °F 37.9 °F 39.2 °F 76% 29.54 in 10.0 mi South 25.3 mph 36.8 mph N/A Rain Light Rain
1:00 PM 44.6 °F 36.9 °F 41.0 °F 87% 29.49 in 8.0 mi SSE 18.4 mph 26.5 mph N/A Rain Light Rain
2:00 PM 46.4 °F 38.7 °F 42.8 °F 87% 29.48 in 10.0 mi South 20.7 mph 28.8 mph N/A Rain Light Rain
2:52 PM 48.2 °F - 42.8 °F 82% 29.48 in 10.0 mi South 27.6 mph 36.8 mph N/A   Mostly Cloudy
3:00 PM 48.2 °F - 42.8 °F 82% 29.48 in 15.0 mi SSW 21.9 mph 36.8 mph N/A   Mostly Cloudy
4:00 PM 46 °F - 38 °F 65% 29.51 in 15 mi SSW 28.8 mph - -   Partly Cloudy
4:00 PM 46.4 °F 37.7 °F 37.4 °F 71% 29.51 in 15.0 mi SSW 26.5 mph 39.1 mph N/A   Scattered Clouds
5:00 PM 44.6 °F 35.5 °F 35.6 °F 71% 29.56 in 20.0 mi SSW 25.3 mph 39.1 mph N/A   Scattered Clouds
6:00 PM 42.8 °F 33.5 °F 33.8 °F 70% 29.60 in 15.0 mi SSW 23.0 mph 33.4 mph N/A   Scattered Clouds
7:00 PM 41.0 °F 31.6 °F 33.8 °F 76% 29.65 in 15.0 mi South 20.7 mph 28.8 mph N/A   Scattered Clouds
8:00 PM 41.0 °F 31.4 °F 32.0 °F 70% 29.68 in 15.0 mi South 21.9 mph 29.9 mph N/A   Partly Cloudy
9:00 PM 39.2 °F 29.6 °F 32.0 °F 75% 29.73 in 15.0 mi South 19.6 mph 26.5 mph N/A   Mostly Cloudy
10:00 PM 39 °F - 31 °F 63% 29.75 in 15 mi SSW 19.6 mph - -   Partly Cloudy
10:00 PM 39.2 °F 30.2 °F 30.2 °F 70% 29.75 in 15.0 mi SSW 17.3 mph 27.6 mph N/A   Scattered Clouds
11:00 PM 39.2 °F 31.2 °F 30.2 °F 70% 29.78 in 15.0 mi South 13.8 mph 20.7 mph N/A   Scattered Clouds